CZ-6A DEB

Satellite information

Favourite Embed

Satellite Type and Status

DEBRISIN ORBIT

Key statistics

Satellite CZ-6A DEB at a glance.

Uptime

273

Days in orbit

Revolutions

≈ 14.3

Per day

Orbit

LEO

Low Earth Orbit

Inclination

89.0

Latest

Satellite identification and parameters

Extended collection of information and parameters for CZ-6A DEB.

Object identification

Identified? True

Debris? True

Object name: CZ-6A DEB

International designator: 2024-140UH

Object number (NORAD): 61320

Object ID (CCSDS): 61320

Country: PEOPLES REPUBLIC OF CHINA (PRC)

Current information (Y/N): Y

RCS size: SMALL

Orbital parameters

Period: 101.005 minutes

Inclination: 89.0043 deg

SMA: 7184.37 km

Apoapsis: 818.957 km

Periapsis: 793.513 km

RAAN: 320.421 deg

Eccentricy: 0.0017708

Argument of periapsis: 59.2072 deg

Mean anomaly: 301.0862 deg

Mean motion: 14.25672432 rev/day

Mean motion (dot): 0.00000605 rev/day2

B* drag term: 0.00024884 1/REarth

Two-line elements (TLE)

Creation date: May 6, 2025, 3:54 a.m.

Reference frame: TEME

Reference center: EARTH

Epoch: May 5, 2025, 6:46 p.m. UTC

TLE line 0: 0 CZ-6A DEB

TLE line 1: 1 61320U 24140UH 25125.78197103 .00000605 00000-0 24884-3 0 9994

TLE line 2: 2 61320 89.0043 320.4210 0017708 59.2072 301.0862 14.25672432 35518

Live tracking on map

Real-time ground track for satellite CZ-6A DEB.

In-orbit conjunctions

A list of the most updated potential collisions computed for object CZ-6A DEB.

Target Orbit TCA Probability of collision Miss distance Type
FENGYUN 1C DEB SSO 2025-02-15 01:26:16 0.0001723409 588.0 (m) DEBRIS
CZ-6A DEB SSO 2024-12-30 16:40:28 0.0001282573 996.0 (m) DEBRIS
FENGYUN 1C DEB SSO 2024-11-30 09:12:28 0.0001904893 480.0 (m) DEBRIS
FENGYUN 1C DEB SSO 2024-11-13 10:49:52 0.0002949712 655.0 (m) DEBRIS
SL-16 DEB LEO 2024-10-15 18:21:33 0.0002736421 898.0 (m) DEBRIS

Associated space launch

18 Low Earth Orbit communication satellites with Ku, Q and V band payloads for the G60 constellation operated by Shanghai Spacecom Satellite Technology (SSST) with funding backed by the Shanghai local government. Initial constellation will consist of 1296 satellites by 2027 with long term plans to expand it to 12000 satellites.

CZ-6A DEB was lifted into orbit during the mission ‘Long March 6A | G60 Polar Group 01’, on board a Long March 6A space rocket.

The launch took place on Aug. 6, 2024, 6:42 a.m. from Launch Complex 9A.

For more information about the launch, click the button.

Launch to space Long March 6A | G60 Polar Group 01
Long March 6A | G60 Polar Group 01

Agency: N/A

Status: Launch Successful

Launch date: Aug. 6, 2024, 6:42 a.m. UTC

Rocket: Long March 6A

Launch pad: Launch Complex 9A

Location: Taiyuan Satellite Launch Center, People's Republic of China

...

Latest news about this satellite

News about space launch
Brightness of first Chinese broadband constellation satellites alarms astronomers

The first satellites of a Chinese broadband constellation are significantly brighter than those of Western systems, posing a new challenge for astronomers.

News about space launch
Chinese rocket stage breaks up into cloud of more than 700 pieces of space debris

HELSINKI — A Chinese Long March 6A rocket’s upper stage has fragmented into a cloud of over 700 pieces of space debris, adding to concerns about long-term orbital safety. China […]

News about space launch
China's Thousand Sails Megaconstellation Kicks Off with Dangerous Debris Field

China's Thousand Sails Megaconstellation Kicks Off with Dangerous Debris Field


Newsletter sign-up

Weekly statistics, charts and insights to help you stay on top of the space industry.